FW6766 Weather Reports


Display with metric or nautical units.
time (UTC)temp
F
wind
direction
speed
MPH
gust
MPH
rain 1hr
in
rain 24hr
in
rain mn
in
humidity
%
barometer
mb
20260901031517 74 0.0 0.0 0.00 0.00 0.00 86 1021.2
20260901030518 74 0.0 0.0 0.00 0.00 0.00 86 1021.2
20260901025517 74 0.0 0.0 0.00 0.00 0.00 85 1021.2
20260901024517 75 0.0 0.0 0.00 0.00 0.00 85 1021.2
20260901023517 75 0.0 0.0 0.00 0.00 0.00 84 1021.0
20260901022517 75 0.0 0.0 0.00 0.00 0.00 82 1021.0
20260901021517 75 0.0 0.0 0.00 0.00 0.00 81 1021.0
20260901020517 75 0.0 0.0 0.00 0.00 0.00 81 1020.8
20260901015517 76 0.0 0.0 0.00 0.00 0.00 80 1020.9
20260901014517 76 0.0 0.0 0.00 0.00 0.00 80 1020.9
20260901013517 76 0.0 0.0 0.00 0.00 0.00 79 1020.7
20260901012517 77 0.0 0.0 0.00 0.00 0.00 77 1020.5
20260901011517 77 0.0 0.0 0.00 0.00 0.00 76 1020.4
20260901010517 77 0.0 0.0 0.00 0.00 0.00 75 1020.2
20260901005517 78 0.0 0.0 0.00 0.00 0.00 75 1020.2
20260901004516 78 0.0 0.0 0.00 0.00 0.00 72 1020.1
20260901003517 79 0.0 0.0 0.00 0.00 0.00 72 1020.1
20260901002537 79 0.0 0.0 0.00 0.00 0.00 72 1020.0
20260901001517 80 0.0 0.0 0.00 0.00 0.00 71 1020.2
20260901000617 80 0.0 0.0 0.00 0.00 0.00 70 1020.1
20260831235516 81 0.0 0.0 0.00 0.00 0.00 69 1020.1
20260831234517 82 0.0 0.0 0.00 0.00 0.00 67 1019.8
20260831233516 82 0.0 0.0 0.00 0.00 0.00 65 1019.9
20260831232516 83 0.0 0.0 0.00 0.00 0.00 64 1020.0
20260831231516 83 0.0 0.0 0.00 0.00 0.00 62 1019.9
20260831230516 84 0.0 0.0 0.00 0.00 0.00 62 1020.2
20260831225536 85 0.0 0.0 0.00 0.00 0.00 64 1020.3
20260831224516 86 0.0 0.0 0.00 0.00 0.00 60 1020.3
20260831223517 87 0.0 0.0 0.00 0.00 0.00 59 1020.4
20260831222516 88 0.0 0.0 0.00 0.00 0.00 58 1020.4
20260831220516 89 0.0 0.0 0.00 0.00 0.00 57 1020.6
20260831215516 89 0.0 0.0 0.00 0.00 0.00 53 1020.7
20260831214516 89 0.0 0.0 0.00 0.00 0.00 57 1020.7
20260831213536 89 0.0 0.0 0.00 0.00 0.00 59 1020.7
20260831212517 88 0.0 2.0 0.00 0.00 0.00 54 1020.7
20260831211516 89 0.0 0.0 0.00 0.00 0.00 59 1020.8
20260831210516 90 0.0 3.0 0.00 0.00 0.00 51 1020.9
20260831205516 90 68 1.0 3.0 0.00 0.00 0.00 51 1020.9
20260831204516 90 0.0 0.0 0.00 0.00 0.00 51 1021.1
20260831203516 90 0.0 0.0 0.00 0.00 0.00 52 1021.1
20260831202516 91 0 1.0 4.0 0.00 0.00 0.00 49 1021.2
20260831201537 92 0.0 1.0 0.00 0.00 0.00 51 1021.5
20260831200516 93 0.0 2.0 0.00 0.00 0.00 49 1021.5
20260831195516 92 0.0 2.0 0.00 0.00 0.00 53 1021.5
20260831194516 92 0 1.0 3.0 0.00 0.00 0.00 49 1021.6
20260831193516 91 0.0 0.0 0.00 0.00 0.00 51 1021.7
20260831192517 91 0.0 2.0 0.00 0.00 0.00 51 1021.7
20260831191516 91 0.0 2.0 0.00 0.00 0.00 53 1021.8
20260831190516 92 0 1.0 4.0 0.00 0.00 0.00 54 1021.9
20260831185516 92 180 1.0 4.0 0.00 0.00 0.00 54 1022.1
20260831184516 91 180 1.0 5.0 0.00 0.00 0.00 54 1022.3
20260831183535 90 0.0 2.0 0.00 0.00 0.00 57 1022.3
20260831182516 89 0.0 0.0 0.00 0.00 0.00 58 1022.2
20260831181515 88 0.0 0.0 0.00 0.00 0.00 63 1022.4
20260831180515 89 0.0 0.0 0.00 0.00 0.00 58 1022.4
20260831175538 90 0.0 1.0 0.00 0.00 0.00 57 1022.5
20260831174518 90 113 1.0 2.0 0.00 0.00 0.00 55 1022.6
20260831173517 89 293 1.0 2.0 0.00 0.00 0.00 58 1022.6
20260831172517 88 0.0 2.0 0.00 0.00 0.00 61 1022.7
20260831171518 89 45 1.0 3.0 0.00 0.00 0.00 59 1022.9
20260831170518 88 0 1.0 3.0 0.00 0.00 0.00 62 1023.0
20260831165518 87 338 1.0 4.0 0.00 0.00 0.00 61 1023.1
20260831164517 87 0.0 0.0 0.00 0.00 0.00 63 1023.3
20260831163517 86 0.0 0.0 0.00 0.00 0.00 67 1023.4
20260831162558 85 0.0 0.0 0.00 0.00 0.00 67 1023.5
20260831161517 84 0.0 0.0 0.00 0.00 0.00 74 1023.6
20260831160517 85 0.0 2.0 0.00 0.00 0.00 73 1023.8
20260831155517 84 0.0 3.0 0.00 0.00 0.00 71 1023.8
20260831154518 83 0.0 1.0 0.00 0.00 0.00 72 1023.8
20260831153517 82 180 1.0 3.0 0.00 0.00 0.00 76 1023.8
20260831152517 81 0.0 2.0 0.00 0.00 0.00 78 1023.9
20260831151557 79 0 1.0 5.0 0.00 0.00 0.00 83 1023.6
20260831150537 79 0 1.0 3.0 0.00 0.00 0.00 83 1023.7
20260831145517 79 338 1.0 5.0 0.00 0.00 0.00 84 1023.7
20260831144538 79 0.0 0.0 0.00 0.00 0.00 85 1023.7
20260831143517 78 0.0 0.0 0.00 0.00 0.00 86 1023.6
20260831142517 78 0 1.0 4.0 0.00 0.00 0.00 86 1023.7
20260831141517 77 0.0 0.0 0.00 0.00 0.00 88 1023.5
20260831140517 76 0.0 0.0 0.00 0.00 0.00 87 1023.6
20260831135517 76 0.0 0.0 0.00 0.00 0.00 90 1023.3
20260831134517 75 0.0 0.0 0.00 0.00 0.00 92 1023.3
20260831133518 74 0.0 0.0 0.00 0.00 0.00 93 1023.2
20260831132517 73 0.0 3.0 0.00 0.00 0.00 94 1023.4
20260831131516 73 0.0 1.0 0.00 0.00 0.00 95 1023.4
20260831130557 72 0.0 1.0 0.00 0.00 0.00 96 1023.3
20260831125517 72 0.0 1.0 0.00 0.00 0.00 96 1023.3
20260831124516 71 0.0 0.0 0.00 0.00 0.00 96 1023.3
20260831123516 71 0.0 0.0 0.00 0.00 0.00 96 1023.2
20260831122517 71 0.0 0.0 0.00 0.00 0.00 96 1023.2
20260831121516 70 0.0 0.0 0.00 0.00 0.00 96 1023.0
20260831120516 70 0.0 0.0 0.00 0.00 0.00 95 1023.0
20260831115516 69 0.0 0.0 0.00 0.00 0.00 95 1022.7
20260831114516 69 0.0 0.0 0.00 0.00 0.00 95 1022.6
20260831113516 69 0.0 0.0 0.00 0.00 0.00 95 1022.5
20260831112516 69 0.0 0.0 0.00 0.00 0.00 95 1022.4
20260831111517 69 0.0 0.0 0.00 0.00 0.00 95 1022.6
20260831110516 69 0.0 0.0 0.00 0.00 0.00 95 1022.4
20260831105516 69 0.0 0.0 0.00 0.00 0.00 94 1022.1
20260831104536 69 0.0 0.0 0.00 0.00 0.00 94 1022.0
20260831103516 69 0.0 0.0 0.00 0.00 0.00 94 1022.0
20260831102516 69 0.0 0.0 0.00 0.00 0.00 94 1022.0
20260831101536 70 0.0 0.0 0.00 0.00 0.00 94 1021.9
20260831100517 70 0.0 0.0 0.00 0.00 0.00 94 1021.9
20260831095516 70 0.0 0.0 0.00 0.00 0.00 94 1021.9
20260831094516 70 0.0 0.0 0.00 0.00 0.00 94 1021.9
20260831093516 70 0.0 0.0 0.00 0.00 0.00 94 1021.9
20260831092516 70 0.0 0.0 0.00 0.00 0.00 94 1021.8
20260831091516 70 0.0 0.0 0.00 0.00 0.00 94 1021.9
20260831090516 70 0.0 0.0 0.00 0.00 0.00 94 1021.9
20260831085617 70 0.0 0.0 0.00 0.00 0.00 94 1021.9
20260831084516 71 0.0 0.0 0.00 0.00 0.00 94 1021.8
20260831083516 71 0.0 0.0 0.00 0.00 0.00 94 1021.8
20260831082536 71 0.0 0.0 0.00 0.00 0.00 94 1021.7
20260831081516 71 0.0 0.0 0.00 0.00 0.00 93 1021.6
20260831080515 71 0.0 0.0 0.00 0.00 0.00 93 1021.6
20260831075517 71 0.0 0.0 0.00 0.00 0.00 93 1021.7
20260831074535 71 0.0 0.0 0.00 0.00 0.00 93 1021.5
20260831073515 71 0.0 0.0 0.00 0.00 0.00 93 1021.6
20260831072516 71 0.0 0.0 0.00 0.00 0.00 93 1021.5
20260831071515 71 0.0 0.0 0.00 0.00 0.00 93 1021.4
20260831070537 71 0.0 0.0 0.00 0.00 0.00 93 1021.2
20260831065516 71 0.0 0.0 0.00 0.00 0.00 92 1021.3
20260831064515 72 0.0 0.0 0.00 0.00 0.00 92 1021.4
20260831063515 72 0.0 0.0 0.00 0.00 0.00 92 1021.4
20260831062515 72 0.0 1.0 0.00 0.00 0.00 92 1021.5
20260831061515 72 0.0 0.0 0.00 0.00 0.00 92 1021.5
20260831060515 72 0.0 0.0 0.00 0.00 0.00 91 1021.4
20260831055517 72 0.0 0.0 0.00 0.00 0.00 91 1021.5
20260831054518 72 0.0 0.0 0.00 0.00 0.00 91 1021.5
20260831053517 72 0.0 0.0 0.00 0.00 0.00 91 1021.4
20260831052517 73 0.0 0.0 0.00 0.00 0.00 91 1021.5
20260831051517 73 0.0 0.0 0.00 0.00 0.00 91 1021.7
20260831050517 73 0.0 0.0 0.00 0.00 0.00 90 1021.7
20260831045517 73 0.0 0.0 0.00 0.00 0.00 90 1021.8
20260831044518 73 0.0 0.0 0.00 0.00 0.00 90 1021.7
20260831043518 73 0.0 0.0 0.00 0.00 0.00 90 1021.7
20260831042517 74 0.0 0.0 0.00 0.00 0.00 89 1021.7
20260831041517 74 0.0 1.0 0.00 0.00 0.00 88 1021.8
20260831040517 74 0.0 0.0 0.00 0.00 0.00 87 1021.7
20260831035517 74 0.0 0.0 0.00 0.00 0.00 87 1021.7
20260831034517 75 0.0 0.0 0.00 0.00 0.00 86 1021.8
20260831033517 75 0.0 0.0 0.00 0.00 0.00 86 1021.8
20260831032518 75 0.0 0.0 0.00 0.00 0.00 85 1021.8